Regional Weather Roundup
Issued by NWS

Home | Current Version | Previous Version | Text Only | Print | Product List | Glossary Off
Versions: 1 2 3 4 5 6 7 8 9 10 11 12 13 14 15 16 17 18 19 20 21 22 23 24 25 26 27 28 29 30 31 32 33 34 35 36 37 38 39 40 41 42 43 44 45 46 47 48 49 50

000
ASUS43 KFSD 010702
RWRSD

WEATHER ROUNDUP FOR SOUTH DAKOTA
NATIONAL WEATHER SERVICE SIOUX FALLS SD
100 AM CST SUN FEB 01 2015

NOTE: "FAIR" INDICATES FEW OR NO CLOUDS BELOW 12,000 FEET WITH NO
SIGNIFICANT WEATHER AND/OR OBSTRUCTIONS TO VISIBILITY.


SDZ001>005-009-010-012>017-010800-
NORTHWEST AND NORTH CENTRAL SOUTH DAKOTA

CITY           SKY/WX    TMP DP  RH WIND       PRES   REMARKS
BUFFALO          N/A      2  -2  83 N9        30.20R WCI -13
FAITH            N/A      4  -1  80 N17       30.25R WCI -16
MOBRIDGE       LGT SNOW   3  -3  76 N14       30.31R WCI -15
$$

SDZ012>016-024>037-041>051-057-063-072>074-010800-
SOUTHWEST AND SOUTH CENTRAL SOUTH DAKOTA

CITY           SKY/WX    TMP DP  RH WIND       PRES   REMARKS
RAPID CTY ARPT FLURRIES  10   7  87 N13       30.18R WCI  -5
PIERRE         FLURRIES   9  -1  64 N20       30.26R WCI -10
CUSTER         CLOUDY    14   9  80 N3        29.96S
ELLSWORTH AFB  FLURRIES  10   7  87 N8        30.18  WCI  -2
PHILIP         LGT SNOW  10   4  76 N12       30.25R WCI  -5
PINE RIDGE     LGT SNOW  13   8  81 N13       30.12R WCI  -2
WINNER         LGT SNOW  10   6  84 N18       30.17R VSB 3/4 WCI  -8
$$

SDZ004>011-016>023-039-040-010800-
NORTHEAST SOUTH DAKOTA

CITY           SKY/WX    TMP DP  RH WIND       PRES   REMARKS
ABERDEEN       LGT SNOW   2  -6  69 N21G31    30.35R WCI -20
WATERTOWN      LGT SNOW   7   1  76 N23G29    30.18S WCI -14
SISSETON         N/A      3  -5  69 N21G29    30.33R WCI -18
$$

SDZ017-020-022-023-036>040-048>070-010800-
SOUTHEAST SOUTH DAKOTA

CITY           SKY/WX    TMP DP  RH WIND       PRES   REMARKS
SIOUX FALLS    LGT SNOW  21  18  88 NE22G31   30.05S VSB 1   WCI   5
HURON          LGT SNOW   8   3  80 N21G29    30.23S WCI -12
MITCHELL       LGT SNOW  14  11  87 N25       30.16S VSB 1   WCI  -5
YANKTON        CLOUDY    25  21  86 N18G24    30.03R VSB 1   WCI  11
$$

ABBREVIATIONS USED IN REMARKS
   TC - TEMPERATURE IN CELSIUS
  WCI - WIND CHILL INDEX
   HX - HEAT INDEX
  VSB - VISIBILITY




USA.gov is the U.S. government's official web portal to all federal, state and local government web resources and services.